HAZ2171 ZSHC-ZLDH

Flight info

Callsign HAZ2171
Flight time 3h 36m
Altitude 34100
Route NIVIK W135 DOGVI W545 VEMEX W163 HFE B208 ZHO H14 ZS H142 DOVOP W541 OVKAB W94 XFG W213 APESU W197 ANDIM B215 TODOD
Aircraft A320/M-SDE3FGHIRWY/LB1

Departure

Time 2026-04-23 03:05
Airport Hangzhou Xiaoshan International Airport (ZSHC)

Arrival

Time 2026-04-23 06:41
Airport Dunhuang Mogao International Airport (ZLDH)
Time Latitude Longitude Altitude Speed Heading
2026-04-23 02:40 30.24121 120.42803 31 ft 0 kts 234°
2026-04-23 02:56 30.24126 120.42811 32 ft 3 kts 234°
2026-04-23 02:57 30.24138 120.42831 32 ft 3 kts 235°
2026-04-23 02:57 30.24146 120.42850 31 ft 3 kts 274°
2026-04-23 02:57 30.24140 120.42870 29 ft 3 kts 321°
2026-04-23 02:57 30.24122 120.42883 30 ft 3 kts 333°
2026-04-23 02:58 30.24119 120.42885 32 ft 0 kts 333°
2026-04-23 03:00 30.24125 120.42881 32 ft 3 kts 333°
2026-04-23 03:00 30.24217 120.42827 32 ft 16 kts 333°
2026-04-23 03:00 30.24283 120.42794 32 ft 16 kts 354°
2026-04-23 03:00 30.24398 120.42810 32 ft 12 kts 49°
2026-04-23 03:01 30.24429 120.42866 30 ft 13 kts 62°
2026-04-23 03:01 30.24488 120.43000 32 ft 16 kts 62°
2026-04-23 03:01 30.24523 120.43079 32 ft 18 kts 63°
2026-04-23 03:01 30.24586 120.43220 32 ft 20 kts 63°
2026-04-23 03:02 30.24657 120.43380 32 ft 23 kts 62°
2026-04-23 03:02 30.24744 120.43442 32 ft 16 kts 345°
2026-04-23 03:02 30.24817 120.43516 32 ft 16 kts 62°
2026-04-23 03:02 30.24876 120.43651 32 ft 21 kts 63°
2026-04-23 03:03 30.24948 120.43812 32 ft 23 kts 63°
2026-04-23 03:03 30.25021 120.43976 32 ft 18 kts 63°
2026-04-23 03:03 30.25092 120.44031 32 ft 13 kts 346°
2026-04-23 03:03 30.25170 120.43988 33 ft 13 kts 333°
2026-04-23 03:04 30.25186 120.43914 30 ft 11 kts 238°
2026-04-23 03:04 30.25177 120.43895 32 ft 0 kts 242°
2026-04-23 03:04 30.25171 120.43883 30 ft 14 kts 242°
2026-04-23 03:04 30.25003 120.43502 31 ft 88 kts 243°
2026-04-23 03:05 30.24629 120.42656 30 ft 143 kts 243°
2026-04-23 03:05 30.24113 120.41481 132 ft 176 kts 244°
2026-04-23 03:05 30.23576 120.40270 875 ft 170 kts 244°
2026-04-23 03:05 30.23023 120.39035 1627 ft 171 kts 246°
2026-04-23 03:06 30.22469 120.37790 2105 ft 182 kts 246°
2026-04-23 03:06 30.21869 120.36429 2316 ft 203 kts 246°
2026-04-23 03:06 30.21193 120.34901 2548 ft 222 kts 246°
2026-04-23 03:06 30.20453 120.33225 2806 ft 246 kts 245°
2026-04-23 03:07 30.19642 120.31396 3276 ft 261 kts 245°
2026-04-23 03:07 30.18801 120.29514 4025 ft 266 kts 245°
2026-04-23 03:07 30.17948 120.27610 4826 ft 268 kts 245°
2026-04-23 03:07 30.17088 120.25690 5607 ft 270 kts 244°
2026-04-23 03:08 30.16222 120.23758 6397 ft 272 kts 244°
2026-04-23 03:08 30.15486 120.21732 6771 ft 273 kts 261°
2026-04-23 03:08 30.15574 120.19580 6866 ft 270 kts 289°
2026-04-23 03:08 30.16546 120.17755 7014 ft 272 kts 318°
2026-04-23 03:09 30.18135 120.16566 7725 ft 274 kts 329°
2026-04-23 03:09 30.19811 120.15501 8476 ft 276 kts 329°
2026-04-23 03:09 30.21502 120.14431 9205 ft 279 kts 329°
2026-04-23 03:09 30.23213 120.13351 9934 ft 282 kts 329°
2026-04-23 03:10 30.24971 120.12242 10281 ft 298 kts 328°
2026-04-23 03:10 30.26862 120.11046 10409 ft 321 kts 329°
2026-04-23 03:10 30.28890 120.09764 10532 ft 342 kts 329°
2026-04-23 03:10 30.31040 120.08404 10660 ft 362 kts 329°
2026-04-23 03:11 30.33278 120.06989 11052 ft 370 kts 329°
2026-04-23 03:11 30.35555 120.05553 11598 ft 375 kts 329°
2026-04-23 03:11 30.37856 120.04104 12185 ft 378 kts 328°
2026-04-23 03:11 30.40177 120.02640 12756 ft 382 kts 328°
2026-04-23 03:12 30.42518 120.01159 13341 ft 385 kts 328°
2026-04-23 03:12 30.44877 119.99665 13889 ft 388 kts 328°
2026-04-23 03:12 30.47255 119.98160 14365 ft 391 kts 328°
2026-04-23 03:12 30.49652 119.96643 14815 ft 394 kts 327°
2026-04-23 03:13 30.52066 119.95112 15282 ft 397 kts 328°
2026-04-23 03:13 30.54498 119.93566 15729 ft 400 kts 327°
2026-04-23 03:13 30.56948 119.92011 16174 ft 403 kts 327°
2026-04-23 03:13 30.59421 119.90461 16601 ft 406 kts 329°
2026-04-23 03:14 30.62085 119.89266 17022 ft 415 kts 340°
2026-04-23 03:14 30.64919 119.88679 17434 ft 424 kts 351°
2026-04-23 03:14 30.67897 119.88753 17839 ft 434 kts
2026-04-23 03:14 30.70891 119.89377 18222 ft 438 kts
2026-04-23 03:15 30.73912 119.89505 18557 ft 432 kts 349°
2026-04-23 03:15 30.76841 119.88868 18910 ft 426 kts 339°
2026-04-23 03:15 30.79592 119.87641 19272 ft 422 kts 329°
2026-04-23 03:15 30.82116 119.85931 19639 ft 418 kts 320°
2026-04-23 03:16 30.84463 119.83941 20013 ft 419 kts 319°
2026-04-23 03:16 30.86815 119.81933 20395 ft 420 kts 319°
2026-04-23 03:16 30.91543 119.77877 21096 ft 424 kts 319°
2026-04-23 03:17 30.93916 119.75834 21442 ft 425 kts 318°
2026-04-23 03:17 30.96302 119.73779 21783 ft 427 kts 318°
2026-04-23 03:17 30.98692 119.71718 22118 ft 429 kts 318°
2026-04-23 03:17 31.01094 119.69646 22449 ft 430 kts 318°
2026-04-23 03:18 31.03508 119.67567 22778 ft 432 kts 318°
2026-04-23 03:18 31.05931 119.65481 23081 ft 434 kts 318°
2026-04-23 03:18 31.08363 119.63384 23410 ft 436 kts 318°
2026-04-23 03:18 31.10811 119.61268 23662 ft 439 kts 317°
2026-04-23 03:19 31.13265 119.59142 23940 ft 440 kts 317°
2026-04-23 03:19 31.15731 119.57006 24202 ft 442 kts 317°
2026-04-23 03:19 31.18197 119.54865 24457 ft 443 kts 317°
2026-04-23 03:19 31.20673 119.52717 24707 ft 444 kts 317°
2026-04-23 03:20 31.23152 119.50564 24942 ft 445 kts 317°
2026-04-23 03:20 31.25641 119.48402 25200 ft 446 kts 317°
2026-04-23 03:20 31.28132 119.46237 25470 ft 447 kts 317°
2026-04-23 03:20 31.30595 119.44098 25723 ft 448 kts 317°
2026-04-23 03:21 31.33099 119.41923 25992 ft 449 kts 317°
2026-04-23 03:21 31.35610 119.39743 26259 ft 450 kts 317°
2026-04-23 03:21 31.38124 119.37560 26613 ft 449 kts 317°
2026-04-23 03:21 31.40628 119.35387 27020 ft 447 kts 316°
2026-04-23 03:22 31.43120 119.33220 27360 ft 446 kts 316°
2026-04-23 03:22 31.45602 119.31054 27701 ft 444 kts 316°
2026-04-23 03:22 31.48077 119.28890 28036 ft 443 kts 316°
2026-04-23 03:22 31.50540 119.26732 28376 ft 441 kts 315°
2026-04-23 03:23 31.52995 119.24582 28738 ft 440 kts 315°
2026-04-23 03:23 31.55437 119.22434 29095 ft 438 kts 315°
2026-04-23 03:23 31.57871 119.20294 29441 ft 436 kts 315°
2026-04-23 03:23 31.60289 119.18152 29825 ft 435 kts 314°
2026-04-23 03:24 31.62696 119.16016 30173 ft 433 kts 314°
2026-04-23 03:24 31.65084 119.13873 30471 ft 430 kts 313°
2026-04-23 03:24 31.67386 119.11652 30760 ft 427 kts 311°
2026-04-23 03:24 31.69612 119.09368 31066 ft 424 kts 310°
2026-04-23 03:25 31.71798 119.07061 31372 ft 422 kts 310°
2026-04-23 03:25 31.73970 119.04758 31668 ft 420 kts 310°
2026-04-23 03:25 31.76143 119.02469 31992 ft 419 kts 310°
2026-04-23 03:25 31.78317 119.00205 32306 ft 417 kts 310°
2026-04-23 03:26 31.80334 118.97808 32572 ft 407 kts 302°
2026-04-23 03:26 31.81916 118.95101 32857 ft 398 kts 292°
2026-04-23 03:26 31.83031 118.92170 33164 ft 389 kts 284°
2026-04-23 03:26 31.83769 118.89129 33454 ft 386 kts 282°
2026-04-23 03:27 31.84299 118.86059 33726 ft 381 kts 274°
2026-04-23 03:27 31.84340 118.82958 33980 ft 379 kts 265°
2026-04-23 03:27 31.84067 118.79871 34103 ft 381 kts 264°
2026-04-23 03:27 31.83787 118.76759 34130 ft 385 kts 264°
2026-04-23 03:28 31.83213 118.70438 34132 ft 392 kts 264°
2026-04-23 03:28 31.82636 118.64061 34140 ft 392 kts 264°
2026-04-23 03:29 31.82062 118.57704 34088 ft 391 kts 264°
2026-04-23 03:29 31.81477 118.51330 34137 ft 393 kts 264°
2026-04-23 03:30 31.80881 118.44944 34136 ft 393 kts 264°
2026-04-23 03:30 31.80286 118.38558 34141 ft 393 kts 264°
2026-04-23 03:31 31.79694 118.32180 34168 ft 392 kts 264°
2026-04-23 03:31 31.79424 118.25787 34162 ft 391 kts 268°
2026-04-23 03:32 31.79305 118.19437 34155 ft 391 kts 268°
2026-04-23 03:32 31.79180 118.13052 34153 ft 391 kts 268°
2026-04-23 03:33 31.79047 118.06662 34171 ft 391 kts 268°
2026-04-23 03:33 31.78937 118.00282 34177 ft 390 kts 268°
2026-04-23 03:34 31.78837 117.93918 34171 ft 389 kts 268°
2026-04-23 03:34 31.78733 117.87566 34169 ft 389 kts 268°
2026-04-23 03:35 31.78626 117.81216 34166 ft 388 kts 268°
2026-04-23 03:35 31.78509 117.74886 34158 ft 387 kts 268°
2026-04-23 03:36 31.78388 117.68553 34110 ft 388 kts 268°
2026-04-23 03:36 31.78270 117.62198 34118 ft 389 kts 268°
2026-04-23 03:37 31.78149 117.55835 34124 ft 390 kts 268°
2026-04-23 03:37 31.78020 117.49504 34129 ft 390 kts 268°
2026-04-23 03:38 31.77888 117.43129 34159 ft 390 kts 268°
2026-04-23 03:38 31.77757 117.36761 34159 ft 390 kts 268°
2026-04-23 03:39 31.78414 117.30460 34158 ft 395 kts 285°
2026-04-23 03:39 31.79600 117.27527 34157 ft 402 kts 296°
2026-04-23 03:39 31.81316 117.24887 34155 ft 409 kts 303°
2026-04-23 03:40 31.85017 117.19786 34158 ft 410 kts 303°
2026-04-23 03:40 31.88715 117.14670 34188 ft 410 kts 303°
2026-04-23 03:41 31.92401 117.09554 34183 ft 409 kts 303°
2026-04-23 03:41 31.96075 117.04450 34179 ft 407 kts 302°
2026-04-23 03:42 31.99737 116.99366 34176 ft 407 kts 302°
2026-04-23 03:42 32.03408 116.94282 34174 ft 407 kts 302°
2026-04-23 03:43 32.07075 116.89197 34158 ft 407 kts 302°
2026-04-23 03:43 32.10721 116.84125 34173 ft 407 kts 302°
2026-04-23 03:44 32.14383 116.79025 34166 ft 407 kts 302°
2026-04-23 03:44 32.18049 116.73934 34166 ft 407 kts 302°
2026-04-23 03:45 32.21661 116.68800 34163 ft 406 kts 301°
2026-04-23 03:45 32.25163 116.63583 34161 ft 405 kts 300°
2026-04-23 03:46 32.28663 116.58356 34165 ft 405 kts 301°
2026-04-23 03:46 32.31580 116.54023 34187 ft 406 kts 300°
2026-04-23 03:47 32.35109 116.48797 34161 ft 407 kts 300°
2026-04-23 03:47 32.39294 116.42699 34152 ft 410 kts 301°
2026-04-23 03:48 32.42345 116.38403 34153 ft 410 kts 301°
2026-04-23 03:48 32.46030 116.33233 34154 ft 411 kts 301°
2026-04-23 03:49 32.49696 116.28046 34159 ft 411 kts 301°
2026-04-23 03:49 32.53348 116.22842 34167 ft 411 kts 300°
2026-04-23 03:50 32.57595 116.16781 34165 ft 412 kts 300°
2026-04-23 03:50 32.60668 116.12414 34164 ft 412 kts 301°
2026-04-23 03:51 32.64350 116.07202 34167 ft 412 kts 301°
2026-04-23 03:51 32.68027 116.01984 34192 ft 412 kts 300°
2026-04-23 03:52 32.71695 115.96760 34179 ft 412 kts 300°
2026-04-23 03:52 32.75358 115.91527 34195 ft 412 kts 300°
2026-04-23 03:53 32.79019 115.86309 34188 ft 411 kts 300°
2026-04-23 03:53 32.82676 115.81089 34186 ft 411 kts 300°
2026-04-23 03:54 32.86295 115.75895 34180 ft 410 kts 300°
2026-04-23 03:54 32.89957 115.70681 34180 ft 411 kts 301°
2026-04-23 03:55 32.93730 115.65550 34177 ft 412 kts 301°
2026-04-23 03:55 32.97543 115.60444 34192 ft 412 kts 301°
2026-04-23 03:56 33.01316 115.55332 34210 ft 410 kts 301°
2026-04-23 03:56 33.05036 115.50241 34171 ft 406 kts 300°
2026-04-23 03:57 33.08738 115.45158 34164 ft 406 kts 300°
2026-04-23 03:57 33.12450 115.40070 34163 ft 407 kts 300°
2026-04-23 03:58 33.16164 115.34983 34165 ft 407 kts 300°
2026-04-23 03:58 33.19876 115.29883 34181 ft 407 kts 301°
2026-04-23 03:59 33.23585 115.24781 34177 ft 407 kts 301°
2026-04-23 03:59 33.27284 115.19677 34175 ft 406 kts 300°
2026-04-23 04:00 33.30980 115.14572 34170 ft 406 kts 300°
2026-04-23 04:00 33.34681 115.09466 34168 ft 406 kts 300°
2026-04-23 04:01 33.38386 115.04342 34163 ft 408 kts 302°
2026-04-23 04:01 33.42105 114.99176 34161 ft 413 kts 303°
2026-04-23 04:02 33.45892 114.93913 34172 ft 420 kts 303°
2026-04-23 04:02 33.49719 114.88596 34170 ft 422 kts 303°
2026-04-23 04:03 33.53532 114.83305 34169 ft 422 kts 303°
2026-04-23 04:03 33.57391 114.77934 34170 ft 422 kts 303°
2026-04-23 04:04 33.61187 114.72626 34166 ft 422 kts 303°
2026-04-23 04:04 33.64989 114.67262 34170 ft 419 kts 299°
2026-04-23 04:05 33.67566 114.61185 34169 ft 404 kts 283°
2026-04-23 04:05 33.69323 114.54766 34171 ft 405 kts 283°
2026-04-23 04:06 33.71077 114.48343 34171 ft 405 kts 283°
2026-04-23 04:06 33.72808 114.41911 34167 ft 404 kts 283°
2026-04-23 04:07 33.74508 114.35469 34156 ft 405 kts 283°
2026-04-23 04:07 33.76210 114.28999 34152 ft 407 kts 284°
2026-04-23 04:08 33.77930 114.22491 34150 ft 410 kts 284°
2026-04-23 04:08 33.79658 114.15950 34151 ft 411 kts 284°
2026-04-23 04:09 33.81381 114.09382 34147 ft 412 kts 284°
2026-04-23 04:09 33.83113 114.02800 34144 ft 413 kts 284°
2026-04-23 04:10 33.84890 113.96210 34140 ft 415 kts 284°
2026-04-23 04:10 33.86679 113.89605 34142 ft 416 kts 284°
2026-04-23 04:11 33.88461 113.82985 34144 ft 416 kts 284°
2026-04-23 04:11 33.90234 113.76353 34147 ft 416 kts 284°
2026-04-23 04:12 33.92001 113.69714 34151 ft 417 kts 285°
2026-04-23 04:12 33.93771 113.63053 34144 ft 418 kts 285°
2026-04-23 04:13 33.95542 113.56378 34141 ft 419 kts 285°
2026-04-23 04:13 33.97316 113.49698 34142 ft 419 kts 285°
2026-04-23 04:14 33.99088 113.43008 34138 ft 419 kts 285°
2026-04-23 04:14 34.00851 113.36307 34134 ft 420 kts 285°
2026-04-23 04:15 34.02598 113.29643 34131 ft 420 kts 285°
2026-04-23 04:16 34.05289 113.19576 34129 ft 421 kts 285°
2026-04-23 04:16 34.07092 113.12865 34129 ft 421 kts 285°
2026-04-23 04:17 34.08885 113.06144 34131 ft 421 kts 285°
2026-04-23 04:17 34.10678 112.99408 34126 ft 422 kts 285°
2026-04-23 04:18 34.12466 112.92661 34121 ft 422 kts 285°
2026-04-23 04:18 34.14149 112.85877 34122 ft 421 kts 278°
2026-04-23 04:19 34.14277 112.78878 34122 ft 418 kts 263°
2026-04-23 04:19 34.13626 112.71886 34123 ft 420 kts 264°
2026-04-23 04:20 34.12976 112.64874 34114 ft 421 kts 264°
2026-04-23 04:20 34.12320 112.57851 34114 ft 421 kts 264°
2026-04-23 04:21 34.11657 112.50875 34095 ft 421 kts 263°
2026-04-23 04:21 34.10979 112.43861 34103 ft 421 kts 264°
2026-04-23 04:22 34.10322 112.36836 34103 ft 421 kts 264°
2026-04-23 04:22 34.09690 112.29805 34108 ft 422 kts 264°
2026-04-23 04:23 34.09080 112.22769 34105 ft 422 kts 264°
2026-04-23 04:23 34.08466 112.15726 34108 ft 422 kts 264°
2026-04-23 04:24 34.07852 112.08675 34108 ft 423 kts 264°
2026-04-23 04:24 34.07230 112.01614 34105 ft 424 kts 264°
2026-04-23 04:25 34.06601 111.94549 34102 ft 423 kts 264°
2026-04-23 04:25 34.05969 111.87486 34105 ft 424 kts 264°
2026-04-23 04:26 34.05334 111.80418 34105 ft 424 kts 264°
2026-04-23 04:26 34.04687 111.73352 34109 ft 424 kts 264°
2026-04-23 04:27 34.04041 111.66286 34107 ft 424 kts 264°
2026-04-23 04:27 34.03388 111.59222 34095 ft 424 kts 264°
2026-04-23 04:28 34.02403 111.48638 34103 ft 424 kts 264°
2026-04-23 04:28 34.01748 111.41628 34109 ft 424 kts 264°
2026-04-23 04:29 34.01083 111.34570 34107 ft 424 kts 264°
2026-04-23 04:29 34.00414 111.27521 34104 ft 423 kts 264°
2026-04-23 04:30 33.99743 111.20470 34106 ft 424 kts 264°
2026-04-23 04:30 33.99072 111.13421 34114 ft 423 kts 264°
2026-04-23 04:31 33.98393 111.06367 34108 ft 424 kts 264°
2026-04-23 04:31 33.97710 110.99312 34105 ft 424 kts 264°
2026-04-23 04:32 33.97026 110.92249 34104 ft 424 kts 264°
2026-04-23 04:32 33.96330 110.85186 34108 ft 425 kts 264°
2026-04-23 04:33 33.95634 110.78121 34110 ft 425 kts 264°
2026-04-23 04:33 33.94931 110.71056 34094 ft 425 kts 264°
2026-04-23 04:34 33.94221 110.63998 34105 ft 425 kts 264°
2026-04-23 04:34 33.93510 110.56939 34110 ft 425 kts 264°
2026-04-23 04:35 33.92960 110.51070 34109 ft 424 kts 264°
2026-04-23 04:35 33.92327 110.44005 34111 ft 425 kts 265°
2026-04-23 04:36 33.91688 110.36933 34110 ft 425 kts 264°
2026-04-23 04:36 33.91036 110.29907 34108 ft 425 kts 264°
2026-04-23 04:37 33.90372 110.22832 34114 ft 426 kts 264°
2026-04-23 04:37 33.89594 110.14559 34119 ft 426 kts 264°
2026-04-23 04:38 33.89035 110.08675 34109 ft 426 kts 264°
2026-04-23 04:38 33.88352 110.01587 34112 ft 426 kts 264°
2026-04-23 04:39 33.87974 109.94485 34114 ft 426 kts 275°
2026-04-23 04:39 33.89424 109.87606 34114 ft 427 kts 290°
2026-04-23 04:40 33.91613 109.80962 34111 ft 427 kts 290°
2026-04-23 04:40 33.93782 109.74297 34108 ft 428 kts 290°
2026-04-23 04:41 33.95938 109.67663 34109 ft 428 kts 290°
2026-04-23 04:41 33.98107 109.60974 34107 ft 429 kts 290°
2026-04-23 04:42 34.00273 109.54282 34110 ft 429 kts 290°
2026-04-23 04:42 34.02440 109.47583 34113 ft 429 kts 290°
2026-04-23 04:43 34.04605 109.40876 34107 ft 429 kts 290°
2026-04-23 04:43 34.06759 109.34161 34106 ft 430 kts 290°
2026-04-23 04:44 34.08917 109.27438 34110 ft 430 kts 290°
2026-04-23 04:44 34.11073 109.20713 34111 ft 430 kts 290°
2026-04-23 04:45 34.13222 109.13977 34108 ft 430 kts 290°
2026-04-23 04:45 34.15366 109.07239 34105 ft 430 kts 290°
2026-04-23 04:46 34.17513 109.00498 34108 ft 430 kts 290°
2026-04-23 04:46 34.19658 108.93749 34109 ft 431 kts 291°
2026-04-23 04:47 34.21059 108.90555 34107 ft 432 kts 303°
2026-04-23 04:47 34.23006 108.87777 34105 ft 435 kts 314°
2026-04-23 04:47 34.25425 108.85554 34103 ft 440 kts 326°
2026-04-23 04:47 34.28219 108.83990 34119 ft 446 kts 338°
2026-04-23 04:48 34.34297 108.82223 34112 ft 450 kts 343°
2026-04-23 04:48 34.40406 108.80551 34109 ft 450 kts 343°
2026-04-23 04:49 34.46523 108.78873 34112 ft 451 kts 343°
2026-04-23 04:49 34.52642 108.77198 34118 ft 451 kts 343°
2026-04-23 04:50 34.58714 108.75527 34132 ft 450 kts 343°
2026-04-23 04:50 34.64820 108.73843 34131 ft 450 kts 343°
2026-04-23 04:51 34.70960 108.72136 34126 ft 448 kts 340°
2026-04-23 04:51 34.76482 108.69008 34121 ft 439 kts 322°
2026-04-23 04:52 34.80853 108.63929 34131 ft 435 kts 310°
2026-04-23 04:52 34.84907 108.58457 34120 ft 436 kts 310°
2026-04-23 04:53 34.88973 108.52982 34110 ft 436 kts 310°
2026-04-23 04:53 34.93037 108.47492 34108 ft 436 kts 310°
2026-04-23 04:54 34.97101 108.41989 34095 ft 437 kts 311°
2026-04-23 04:54 35.01159 108.36478 34099 ft 437 kts 310°
2026-04-23 04:55 35.05211 108.30962 34099 ft 437 kts 310°
2026-04-23 04:55 35.09266 108.25449 34098 ft 436 kts 310°
2026-04-23 04:56 35.13289 108.19962 34099 ft 436 kts 310°
2026-04-23 04:56 35.17333 108.14434 34090 ft 436 kts 310°
2026-04-23 04:57 35.21377 108.08901 34086 ft 436 kts 310°
2026-04-23 04:57 35.25419 108.03360 34086 ft 436 kts 310°
2026-04-23 04:58 35.29457 107.97816 34073 ft 436 kts 310°
2026-04-23 04:58 35.33495 107.92266 34070 ft 436 kts 310°
2026-04-23 04:59 35.37531 107.86708 34066 ft 436 kts 310°
2026-04-23 04:59 35.41576 107.81157 34080 ft 436 kts 311°
2026-04-23 05:00 35.45624 107.75605 34072 ft 437 kts 311°
2026-04-23 05:00 35.50155 107.70658 34058 ft 439 kts 327°
2026-04-23 05:01 35.55811 107.67925 34053 ft 445 kts 345°
2026-04-23 05:01 35.61875 107.66362 34050 ft 446 kts 345°
2026-04-23 05:02 35.67943 107.64775 34058 ft 446 kts 345°
2026-04-23 05:02 35.73788 107.62443 34051 ft 440 kts 328°
2026-04-23 05:03 35.76272 107.60276 34041 ft 437 kts 316°
2026-04-23 05:03 35.78322 107.57530 34039 ft 436 kts 305°
2026-04-23 05:03 35.79858 107.54329 34034 ft 435 kts 294°
2026-04-23 05:03 35.80851 107.50804 34031 ft 436 kts 287°
2026-04-23 05:04 35.82508 107.43606 34020 ft 437 kts 287°
2026-04-23 05:04 35.84159 107.36393 34016 ft 438 kts 287°
2026-04-23 05:05 35.85809 107.29172 34015 ft 438 kts 287°
2026-04-23 05:05 35.87450 107.21942 34018 ft 438 kts 287°
2026-04-23 05:06 35.89055 107.14747 34013 ft 438 kts 286°
2026-04-23 05:06 35.90638 107.07485 34014 ft 438 kts 285°
2026-04-23 05:07 35.92097 107.00180 34005 ft 438 kts 285°
2026-04-23 05:07 35.93519 106.92867 34010 ft 438 kts 285°
2026-04-23 05:08 35.94960 106.85559 34010 ft 438 kts 285°
2026-04-23 05:08 35.96419 106.78257 34009 ft 438 kts 285°
2026-04-23 05:09 35.97872 106.70942 34011 ft 438 kts 285°
2026-04-23 05:09 35.99326 106.63637 34009 ft 438 kts 285°
2026-04-23 05:10 36.00825 106.56346 34004 ft 438 kts 285°
2026-04-23 05:10 36.02317 106.49104 34004 ft 438 kts 285°
2026-04-23 05:11 36.03798 106.41801 34008 ft 438 kts 285°
2026-04-23 05:11 36.05267 106.34500 34000 ft 438 kts 285°
2026-04-23 05:12 36.06730 106.27193 34007 ft 438 kts 285°
2026-04-23 05:12 36.08196 106.19892 34011 ft 437 kts 285°
2026-04-23 05:13 36.09787 106.12641 34014 ft 437 kts 287°
2026-04-23 05:14 36.12274 106.01796 34013 ft 437 kts 287°
2026-04-23 05:14 36.13900 105.94553 34003 ft 437 kts 286°
2026-04-23 05:15 36.15501 105.87307 34025 ft 437 kts 286°
2026-04-23 05:15 36.17093 105.80055 34028 ft 437 kts 286°
2026-04-23 05:16 36.18683 105.72808 34042 ft 436 kts 286°
2026-04-23 05:16 36.20279 105.65552 34034 ft 437 kts 286°
2026-04-23 05:17 36.21871 105.58290 34034 ft 437 kts 286°
2026-04-23 05:17 36.23452 105.51017 34037 ft 438 kts 286°
2026-04-23 05:18 36.25035 105.43737 34043 ft 438 kts 286°
2026-04-23 05:18 36.26616 105.36451 34043 ft 438 kts 286°
2026-04-23 05:19 36.28189 105.29165 34057 ft 438 kts 286°
2026-04-23 05:19 36.29756 105.21874 34043 ft 438 kts 285°
2026-04-23 05:20 36.31320 105.14572 34050 ft 438 kts 286°
2026-04-23 05:20 36.32887 105.07275 34050 ft 438 kts 285°
2026-04-23 05:21 36.34444 104.99973 34049 ft 438 kts 285°
2026-04-23 05:21 36.35992 104.92662 34058 ft 438 kts 285°
2026-04-23 05:22 36.37526 104.85405 34050 ft 438 kts 285°
2026-04-23 05:22 36.39066 104.78097 34051 ft 437 kts 285°
2026-04-23 05:23 36.40601 104.70795 34047 ft 437 kts 285°
2026-04-23 05:23 36.42136 104.63485 34052 ft 437 kts 285°
2026-04-23 05:24 36.43670 104.56179 34047 ft 437 kts 285°
2026-04-23 05:24 36.45188 104.48864 34049 ft 437 kts 285°
2026-04-23 05:25 36.46701 104.41552 34045 ft 437 kts 285°
2026-04-23 05:25 36.48333 104.34282 34053 ft 437 kts 292°
2026-04-23 05:26 36.50578 104.28674 34050 ft 436 kts 298°
2026-04-23 05:26 36.53435 104.22020 34051 ft 437 kts 298°
2026-04-23 05:27 36.56283 104.15354 34064 ft 436 kts 297°
2026-04-23 05:27 36.59117 104.08682 34067 ft 436 kts 297°
2026-04-23 05:28 36.61945 104.02006 34077 ft 436 kts 297°
2026-04-23 05:28 36.64816 103.95357 34077 ft 436 kts 298°
2026-04-23 05:29 36.67720 103.88727 34095 ft 436 kts 298°
2026-04-23 05:29 36.70617 103.82096 34088 ft 436 kts 298°
2026-04-23 05:30 36.73490 103.75451 34094 ft 435 kts 298°
2026-04-23 05:30 36.76362 103.68810 34095 ft 435 kts 298°
2026-04-23 05:31 36.79227 103.62163 34102 ft 435 kts 298°
2026-04-23 05:31 36.82093 103.55515 34102 ft 435 kts 298°
2026-04-23 05:32 36.84933 103.48914 34100 ft 434 kts 298°
2026-04-23 05:32 36.87779 103.42269 34110 ft 434 kts 298°
2026-04-23 05:33 36.90616 103.35624 34111 ft 433 kts 298°
2026-04-23 05:33 36.93449 103.28987 34116 ft 433 kts 298°
2026-04-23 05:34 36.96495 103.22496 34117 ft 433 kts 302°
2026-04-23 05:34 36.99778 103.16189 34122 ft 433 kts 302°
2026-04-23 05:35 37.03066 103.09861 34107 ft 433 kts 302°
2026-04-23 05:35 37.06275 103.03487 34116 ft 432 kts 301°
2026-04-23 05:36 37.09454 102.97104 34117 ft 432 kts 301°
2026-04-23 05:36 37.12619 102.90769 34116 ft 432 kts 302°
2026-04-23 05:37 37.15808 102.84396 34111 ft 431 kts 302°
2026-04-23 05:37 37.18989 102.78025 34109 ft 431 kts 301°
2026-04-23 05:38 37.22155 102.71651 34107 ft 430 kts 302°
2026-04-23 05:38 37.25305 102.65291 34110 ft 429 kts 302°
2026-04-23 05:39 37.28447 102.58936 34134 ft 428 kts 302°
2026-04-23 05:39 37.31592 102.52584 34124 ft 428 kts 302°
2026-04-23 05:40 37.34717 102.46212 34117 ft 428 kts 299°
2026-04-23 05:40 37.36780 102.39206 34103 ft 429 kts 285°
2026-04-23 05:41 37.38209 102.31925 34108 ft 428 kts 285°
2026-04-23 05:41 37.39644 102.24658 34111 ft 428 kts 285°
2026-04-23 05:42 37.41069 102.17383 34109 ft 428 kts 285°
2026-04-23 05:42 37.42467 102.10161 34109 ft 428 kts 285°
2026-04-23 05:43 37.43877 102.02894 34087 ft 427 kts 285°
2026-04-23 05:43 37.45294 101.95628 34093 ft 428 kts 285°
2026-04-23 05:44 37.46696 101.88355 34084 ft 428 kts 285°
2026-04-23 05:44 37.48087 101.81080 34084 ft 427 kts 285°
2026-04-23 05:45 37.49477 101.73802 34077 ft 427 kts 285°
2026-04-23 05:45 37.51236 101.66686 34076 ft 425 kts 297°
2026-04-23 05:46 37.53931 101.60077 34086 ft 423 kts 298°
2026-04-23 05:46 37.56604 101.53474 34087 ft 423 kts 298°
2026-04-23 05:47 37.59248 101.46913 34088 ft 423 kts 298°
2026-04-23 05:47 37.61898 101.40306 34088 ft 422 kts 297°
2026-04-23 05:48 37.64547 101.33699 34100 ft 422 kts 297°
2026-04-23 05:48 37.67270 101.27153 34079 ft 421 kts 300°
2026-04-23 05:49 37.70157 101.20733 34084 ft 420 kts 300°
2026-04-23 05:49 37.73058 101.14329 34083 ft 420 kts 300°
2026-04-23 05:50 37.75911 101.07889 34082 ft 420 kts 300°
2026-04-23 05:50 37.78741 101.01439 34077 ft 420 kts 300°
2026-04-23 05:51 37.81571 100.94980 34075 ft 420 kts 300°
2026-04-23 05:51 37.84379 100.88561 34075 ft 420 kts 300°
2026-04-23 05:52 37.87184 100.82084 34078 ft 420 kts 299°
2026-04-23 05:52 37.89981 100.75591 34081 ft 420 kts 299°
2026-04-23 05:53 37.92782 100.69099 34078 ft 420 kts 299°
2026-04-23 05:53 37.95578 100.62603 34099 ft 420 kts 299°
2026-04-23 05:54 37.98370 100.56103 34078 ft 420 kts 299°
2026-04-23 05:54 38.01156 100.49595 34087 ft 420 kts 299°
2026-04-23 05:55 38.03944 100.43096 34089 ft 419 kts 299°
2026-04-23 05:55 38.06722 100.36599 34078 ft 419 kts 299°
2026-04-23 05:56 38.09486 100.30093 34076 ft 419 kts 299°
2026-04-23 05:56 38.12243 100.23581 34071 ft 419 kts 299°
2026-04-23 05:57 38.15007 100.17070 34050 ft 419 kts 299°
2026-04-23 05:57 38.17770 100.10550 34058 ft 419 kts 299°
2026-04-23 05:58 38.20526 100.04016 34061 ft 420 kts 299°
2026-04-23 05:58 38.23300 99.97489 34068 ft 420 kts 300°
2026-04-23 05:59 38.26166 99.91015 34087 ft 420 kts 300°
2026-04-23 05:59 38.29040 99.84549 34082 ft 420 kts 300°
2026-04-23 06:00 38.31885 99.78058 34080 ft 420 kts 300°
2026-04-23 06:00 38.34719 99.71562 34084 ft 419 kts 300°
2026-04-23 06:01 38.37553 99.65064 34091 ft 419 kts 300°
2026-04-23 06:01 38.40364 99.58605 34089 ft 419 kts 300°
2026-04-23 06:02 38.43186 99.52100 34081 ft 419 kts 300°
2026-04-23 06:02 38.46005 99.45592 34071 ft 419 kts 300°
2026-04-23 06:03 38.48823 99.39084 34081 ft 419 kts 300°
2026-04-23 06:03 38.51638 99.32566 34085 ft 419 kts 300°
2026-04-23 06:04 38.54451 99.26031 34081 ft 419 kts 300°
2026-04-23 06:04 38.57258 99.19493 34081 ft 419 kts 300°
2026-04-23 06:05 38.60059 99.12953 34091 ft 419 kts 300°
2026-04-23 06:05 38.62864 99.06403 34073 ft 420 kts 300°
2026-04-23 06:06 38.65670 98.99845 34079 ft 420 kts 300°
2026-04-23 06:06 38.68470 98.93280 34085 ft 421 kts 300°
2026-04-23 06:07 38.71262 98.86701 34094 ft 421 kts 300°
2026-04-23 06:07 38.74035 98.80159 34091 ft 421 kts 300°
2026-04-23 06:08 38.76829 98.73570 34092 ft 421 kts 300°
2026-04-23 06:08 38.79616 98.66972 34075 ft 421 kts 300°
2026-04-23 06:09 38.82410 98.60357 34090 ft 422 kts 300°
2026-04-23 06:09 38.85200 98.53727 34095 ft 423 kts 300°
2026-04-23 06:10 38.87988 98.47087 34082 ft 423 kts 300°
2026-04-23 06:10 38.90777 98.40436 34086 ft 423 kts 300°
2026-04-23 06:11 38.93560 98.33778 34079 ft 423 kts 300°
2026-04-23 06:11 38.96341 98.27105 34097 ft 423 kts 300°
2026-04-23 06:12 38.99113 98.20451 34100 ft 422 kts 300°
2026-04-23 06:12 39.03243 98.10508 34102 ft 422 kts 300°
2026-04-23 06:13 39.06007 98.03844 34105 ft 423 kts 300°
2026-04-23 06:13 39.08763 97.97168 34140 ft 422 kts 300°
2026-04-23 06:14 39.11508 97.90494 34115 ft 422 kts 300°
2026-04-23 06:14 39.14251 97.83832 34122 ft 421 kts 300°
2026-04-23 06:15 39.16991 97.77176 34123 ft 421 kts 300°
2026-04-23 06:15 39.19725 97.70507 34126 ft 421 kts 300°
2026-04-23 06:16 39.22444 97.63832 34129 ft 420 kts 300°
2026-04-23 06:16 39.25157 97.57161 34114 ft 420 kts 300°
2026-04-23 06:17 39.27419 97.51565 34117 ft 420 kts 300°
2026-04-23 06:17 39.30097 97.44909 33500 ft 419 kts 299°
2026-04-23 06:18 39.31870 97.40476 32723 ft 412 kts 300°
2026-04-23 06:18 39.33183 97.37199 32151 ft 410 kts 300°
2026-04-23 06:18 39.34497 97.33929 31594 ft 410 kts 300°
2026-04-23 06:18 39.35368 97.31764 31246 ft 410 kts 300°
2026-04-23 06:19 39.36679 97.28498 30693 ft 410 kts 300°
2026-04-23 06:19 39.37990 97.25228 30170 ft 410 kts 300°
2026-04-23 06:19 39.39302 97.21951 29560 ft 411 kts 300°
2026-04-23 06:19 39.40618 97.18658 28946 ft 413 kts 299°
2026-04-23 06:20 39.41938 97.15342 28341 ft 416 kts 299°
2026-04-23 06:20 39.43266 97.12001 27747 ft 419 kts 299°
2026-04-23 06:20 39.44602 97.08635 27171 ft 422 kts 299°
2026-04-23 06:20 39.45947 97.05240 26598 ft 425 kts 299°
2026-04-23 06:21 39.47302 97.01824 26055 ft 428 kts 299°
2026-04-23 06:21 39.48676 96.98386 25501 ft 431 kts 299°
2026-04-23 06:21 39.50063 96.94929 24973 ft 434 kts 299°
2026-04-23 06:21 39.51463 96.91443 24451 ft 437 kts 299°
2026-04-23 06:22 39.52873 96.87938 23934 ft 440 kts 299°
2026-04-23 06:22 39.54282 96.84424 23407 ft 439 kts 299°
2026-04-23 06:22 39.55683 96.80922 22792 ft 436 kts 299°
2026-04-23 06:22 39.57072 96.77434 22191 ft 434 kts 299°
2026-04-23 06:23 39.58450 96.73970 21615 ft 432 kts 299°
2026-04-23 06:23 39.59824 96.70517 21054 ft 430 kts 298°
2026-04-23 06:23 39.61191 96.67079 20503 ft 428 kts 298°
2026-04-23 06:23 39.62546 96.63660 19981 ft 425 kts 298°
2026-04-23 06:24 39.63888 96.60270 19456 ft 419 kts 298°
2026-04-23 06:24 39.65227 96.56922 18928 ft 417 kts 298°
2026-04-23 06:24 39.66572 96.53598 18426 ft 415 kts 298°
2026-04-23 06:24 39.67894 96.50336 17833 ft 413 kts 297°
2026-04-23 06:25 39.69225 96.47046 17253 ft 409 kts 297°
2026-04-23 06:25 39.70538 96.43787 16679 ft 405 kts 297°
2026-04-23 06:25 39.71834 96.40565 16118 ft 399 kts 297°
2026-04-23 06:25 39.73121 96.37366 15568 ft 399 kts 297°
2026-04-23 06:26 39.74399 96.34187 15028 ft 397 kts 297°
2026-04-23 06:26 39.75673 96.31005 14505 ft 395 kts 297°
2026-04-23 06:26 39.76928 96.27856 14349 ft 393 kts 297°
2026-04-23 06:26 39.78184 96.24700 14205 ft 391 kts 296°
2026-04-23 06:27 39.79435 96.21561 14075 ft 390 kts 297°
2026-04-23 06:27 39.80685 96.18417 13954 ft 390 kts 297°
2026-04-23 06:27 39.81934 96.15278 13794 ft 391 kts 296°
2026-04-23 06:27 39.83188 96.12127 13764 ft 392 kts 296°
2026-04-23 06:28 39.84436 96.08991 13773 ft 391 kts 297°
2026-04-23 06:28 39.85687 96.05838 13765 ft 393 kts 296°
2026-04-23 06:28 39.86941 96.02673 13766 ft 395 kts 296°
2026-04-23 06:28 39.88196 95.99494 13750 ft 394 kts 296°
2026-04-23 06:29 39.89447 95.96325 13741 ft 394 kts 296°
2026-04-23 06:29 39.90682 95.93197 13737 ft 393 kts 296°
2026-04-23 06:29 39.91932 95.90034 13737 ft 393 kts 296°
2026-04-23 06:29 39.93182 95.86873 13737 ft 392 kts 296°
2026-04-23 06:30 39.94428 95.83713 13739 ft 392 kts 295°
2026-04-23 06:30 39.95671 95.80550 13739 ft 393 kts 296°
2026-04-23 06:30 39.96915 95.77373 13730 ft 394 kts 295°
2026-04-23 06:30 39.98127 95.74175 13436 ft 392 kts 294°
2026-04-23 06:31 39.99306 95.70981 13144 ft 390 kts 294°
2026-04-23 06:31 40.00470 95.67789 12869 ft 390 kts 295°
2026-04-23 06:31 40.01633 95.64599 12611 ft 389 kts 295°
2026-04-23 06:31 40.02796 95.61416 12357 ft 388 kts 295°
2026-04-23 06:32 40.03959 95.58244 12102 ft 387 kts 295°
2026-04-23 06:32 40.05118 95.55083 11849 ft 385 kts 295°
2026-04-23 06:32 40.06276 95.51928 11601 ft 385 kts 295°
2026-04-23 06:32 40.07410 95.48859 11354 ft 374 kts 296°
2026-04-23 06:33 40.08797 95.46016 11075 ft 360 kts 307°
2026-04-23 06:33 40.10345 95.43578 10835 ft 347 kts 308°
2026-04-23 06:33 40.11860 95.41199 10595 ft 335 kts 308°
2026-04-23 06:33 40.13322 95.38896 10360 ft 324 kts 308°
2026-04-23 06:34 40.14739 95.36657 10119 ft 315 kts 308°
2026-04-23 06:34 40.16112 95.34478 9891 ft 306 kts 308°
2026-04-23 06:34 40.17449 95.32357 9644 ft 298 kts 308°
2026-04-23 06:34 40.18674 95.30219 9376 ft 289 kts 298°
2026-04-23 06:35 40.19402 95.27816 9120 ft 281 kts 282°
2026-04-23 06:35 40.19575 95.25309 8865 ft 275 kts 267°
2026-04-23 06:35 40.19390 95.22846 8624 ft 270 kts 264°
2026-04-23 06:35 40.19203 95.20444 8449 ft 261 kts 265°
2026-04-23 06:36 40.19028 95.18126 8313 ft 250 kts 265°
2026-04-23 06:36 40.18862 95.15915 8215 ft 239 kts 265°
2026-04-23 06:36 40.18700 95.13771 8001 ft 235 kts 265°
2026-04-23 06:36 40.18540 95.11649 7720 ft 234 kts 265°
2026-04-23 06:37 40.18380 95.09533 7433 ft 234 kts 265°
2026-04-23 06:37 40.18219 95.07422 7131 ft 231 kts 265°
2026-04-23 06:37 40.18062 95.05369 6846 ft 223 kts 265°
2026-04-23 06:37 40.17911 95.03387 6571 ft 215 kts 265°
2026-04-23 06:38 40.17764 95.01477 6300 ft 207 kts 264°
2026-04-23 06:38 40.17624 94.99643 6055 ft 205 kts 264°
2026-04-23 06:38 40.17482 94.97797 5787 ft 199 kts 264°
2026-04-23 06:38 40.17346 94.96032 5510 ft 188 kts 266°
2026-04-23 06:39 40.17219 94.94402 5274 ft 174 kts 266°
2026-04-23 06:39 40.17104 94.92906 5072 ft 157 kts 265°
2026-04-23 06:39 40.16997 94.91529 4866 ft 147 kts 265°
2026-04-23 06:39 40.16896 94.90215 4685 ft 147 kts 265°
2026-04-23 06:40 40.16793 94.88896 4499 ft 145 kts 265°
2026-04-23 06:40 40.16691 94.87590 4311 ft 145 kts 267°
2026-04-23 06:40 40.16588 94.86269 4138 ft 143 kts 268°
2026-04-23 06:40 40.16490 94.84963 3948 ft 146 kts 266°
2026-04-23 06:41 40.16383 94.83663 3786 ft 146 kts 264°
2026-04-23 06:41 40.16282 94.82385 3705 ft 130 kts 265°
2026-04-23 06:41 40.16203 94.81367 3691 ft 90 kts 264°
2026-04-23 06:41 40.16160 94.80808 3693 ft 32 kts 264°
2026-04-23 06:42 40.16211 94.80686 3693 ft 15 kts 349°
2026-04-23 06:42 40.16298 94.80670 3696 ft 10 kts 354°
2026-04-23 06:42 40.16349 94.80663 3696 ft 6 kts 353°
2026-04-23 06:42 40.16385 94.80650 3696 ft 5 kts 327°
2026-04-23 06:43 40.16396 94.80603 3696 ft 7 kts 269°
2026-04-23 06:43 40.16420 94.80553 3702 ft 8 kts 340°
2026-04-23 06:43 40.16469 94.80545 3700 ft 3 kts 354°
2026-04-23 06:43 40.16485 94.80543 3696 ft 1 kts 354°
2026-04-23 06:44 40.16491 94.80542 3696 ft 1 kts 354°